DW4326 Weather Reports


time (UTC)temp
C
wind
direction
speed
KPH
gust
KPH
rain 1hr
cm
rain 24hr
cm
rain mn
cm
humidity
%
barometer
mb
20260903213423 23 13 0.0 0.0 0.00 0.18 0.18 84 1010.9
20260903212515 24 165 0.0 4.8 0.00 0.18 0.18 82 1010.7
20260903211939 23 13 0.0 8.0 0.00 0.18 0.18 83 1010.8
20260903204923 24 182 0.0 4.8 0.00 0.18 0.18 81 1010.6
20260903204120 23 200 0.0 8.0 0.00 0.18 0.18 82 1010.7
20260903202612 23 196 4.8 14.5 0.00 0.18 0.18 81 1010.6
20260903200417 23 167 0.0 9.7 0.00 0.18 0.18 82 1010.9
20260903194918 24 198 3.2 11.3 0.00 0.18 0.18 81 1010.8
20260903193417 23 200 0.0 14.5 0.00 0.18 0.18 80 1011.1
20260903191917 24 192 6.4 14.5 0.00 0.18 0.18 80 1011.1
20260903190426 23 195 4.8 9.7 0.00 0.18 0.18 82 1011.2
20260903185612 23 209 1.6 6.4 0.00 0.18 0.18 82 1011.4
20260903183416 23 193 0.0 0.0 0.00 0.18 0.18 83 1011.5
20260903181913 23 221 0.0 0.0 0.00 0.18 0.18 82 1011.7
20260903180413 22 196 0.0 0.0 0.00 0.18 0.18 86 1011.9
20260903174912 21 196 0.0 1.6 0.00 0.18 0.18 86 1012.2
20260903174130 20 208 0.0 4.8 0.00 0.18 0.18 88 1012.2
20260903171911 20 186 0.0 3.2 0.00 0.18 0.18 89 1012.4
20260903170408 20 197 0.0 0.0 0.00 0.18 0.18 89 1012.6
20260903164908 19 185 0.0 0.0 0.00 0.18 0.18 90 1012.6
20260903163408 18 202 0.0 0.0 0.00 0.18 0.18 92 1012.8
20260903161907 18 196 0.0 0.0 0.00 0.18 0.18 93 1012.8
20260903160407 18 197 0.0 0.0 0.00 0.18 0.18 92 1013.0
20260903154907 17 200 0.0 0.0 0.00 0.18 0.18 93 1013.1
20260903153407 17 200 0.0 0.0 0.00 0.18 0.18 94 1013.4
20260903151905 17 199 0.0 0.0 0.00 0.18 0.18 95 1013.7
20260903150405 17 199 0.0 3.2 0.00 0.18 0.18 94 1013.5
20260903144904 17 198 0.0 6.4 0.00 0.18 0.18 95 1013.8
20260903143403 16 196 0.0 0.0 0.00 0.18 0.18 97 1014.0
20260903141904 16 196 0.0 0.0 0.00 0.18 0.18 97 1014.0
20260903140408 16 196 0.0 0.0 0.00 0.18 0.18 96 1014.0
20260903134901 16 196 0.0 0.0 0.00 0.18 0.18 96 1014.0
20260903133359 16 196 0.0 0.0 0.00 0.18 0.18 96 1014.0
20260903131858 16 196 0.0 0.0 0.00 0.18 0.18 97 1013.9
20260903130359 16 196 0.0 1.6 0.00 0.18 0.18 96 1013.8
20260903124858 16 196 0.0 1.6 0.00 0.18 0.18 96 1013.9
20260903123358 15 195 0.0 3.2 0.00 0.18 0.18 97 1014.0
20260903121858 15 194 0.0 3.2 0.00 0.18 0.18 97 1014.1
20260903120359 15 199 0.0 4.8 0.00 0.18 0.18 97 1014.0
20260903114858 15 199 0.0 3.2 0.00 0.18 0.18 97 1014.2
20260903113358 15 199 0.0 0.0 0.00 0.18 0.18 97 1014.2
20260903111858 15 199 0.0 0.0 0.00 0.18 0.18 97 1014.2
20260903110356 15 199 0.0 3.2 0.00 0.18 0.18 97 1014.1
20260903104853 15 200 0.0 1.6 0.00 0.18 0.18 97 1014.3
20260903103353 15 200 0.0 3.2 0.00 0.18 0.18 97 1014.0
20260903101851 15 199 0.0 3.2 0.00 0.18 0.18 97 1014.0
20260903100350 15 199 0.0 6.4 0.00 0.18 0.18 97 1013.9
20260903094847 15 198 0.0 4.8 0.00 0.18 0.18 97 1013.8
20260903093347 15 204 0.0 1.6 0.00 0.18 0.18 97 1014.0
20260903093250 15 203 0.0 0.0 0.00 0.18 0.18 97 1014.0
20260903090343 15 187 0.0 0.0 0.00 0.18 0.18 97 1014.1
20260903085530 15 188 0.0 0.0 0.00 0.18 0.18 96 1014.3
20260903083343 15 188 0.0 0.0 0.00 0.18 0.18 96 1014.4
20260903081837 15 187 0.0 0.0 0.00 0.18 0.18 96 1014.5
20260903080337 15 187 0.0 0.0 0.00 0.18 0.18 96 1014.6
20260903074834 15 187 0.0 0.0 0.00 0.18 0.18 96 1014.6
20260903073334 15 177 0.0 0.0 0.00 0.18 0.18 96 1014.7
20260903073233 15 199 0.0 0.0 0.00 0.18 0.18 95 1015.1
20260903070335 15 196 0.0 0.0 0.00 0.18 0.18 95 1015.1
20260903064832 15 200 0.0 0.0 0.03 0.18 0.18 95 1014.7
20260903064028 15 186 0.0 0.0 0.18 0.18 0.18 95 1015.0
20260903061832 15 178 0.0 0.0 0.18 0.18 0.18 94 1015.2
20260903060332 16 154 0.0 0.0 0.18 0.18 0.18 92 1015.3
20260903055536 16 154 0.0 0.0 0.15 0.15 0.15 88 1015.6
20260903053333 17 198 0.0 0.0 0.00 0.00 0.00 83 1015.7
20260903052528 17 155 0.0 0.0 0.00 0.00 0.00 83 1015.6
20260903050332 17 142 0.0 0.0 0.00 0.00 0.00 85 1015.8
20260903044831 17 157 0.0 0.0 0.00 0.00 0.00 85 1015.8
20260903043330 17 183 0.0 3.2 0.00 0.00 0.00 86 1015.9
20260903041830 17 153 0.0 9.7 0.00 0.00 0.00 86 1016.0
20260903040327 17 192 1.6 9.7 0.00 0.00 0.00 87 1015.9
20260903035528 17 195 0.0 0.0 0.00 0.00 0.00 87 1015.8
20260903033328 17 190 0.0 0.0 0.00 0.00 0.00 85 1016.1
20260903031828 17 211 0.0 0.0 0.00 0.00 0.00 86 1016.7
20260903030328 17 196 0.0 0.0 0.00 0.03 0.00 87 1016.6
20260903024823 17 163 0.0 0.0 0.00 0.03 0.00 88 1017.1
20260903023324 17 188 0.0 0.0 0.00 0.03 0.00 85 1017.3
20260903021822 17 199 0.0 0.0 0.00 0.03 0.00 84 1017.0
20260903020322 17 199 0.0 0.0 0.00 0.03 0.00 85 1017.2
20260903014824 17 221 0.0 0.0 0.00 0.03 0.00 85 1017.4
20260903013322 17 189 0.0 0.0 0.00 0.03 0.00 86 1017.8
20260903012519 17 192 0.0 3.2 0.00 0.03 0.00 87 1017.7
20260903011724 17 191 0.0 8.0 0.00 0.05 0.00 88 1017.5
20260903004822 17 196 0.0 12.9 0.00 0.08 0.00 90 1017.5
20260903003321 17 196 0.0 9.7 0.00 0.08 0.00 92 1017.5
20260903001818 17 204 0.0 4.8 0.00 0.10 0.00 92 1017.4
20260903000318 17 188 0.0 4.8 0.00 0.10 0.00 91 1017.3
20260902235519 17 194 1.6 9.7 0.00 0.10 0.00 91 1017.1
20260902233315 17 219 0.0 8.0 0.00 0.10 0.00 91 1017.2
20260902231815 17 219 0.0 9.7 0.00 0.10 0.00 92 1017.3
20260902230317 17 196 1.6 11.3 0.00 0.10 0.00 92 1017.7
20260902224815 17 190 0.0 8.0 0.00 0.10 0.00 93 1018.5
20260902223315 17 190 0.0 0.0 0.00 0.10 0.00 92 1018.9
20260902221813 17 190 0.0 0.0 0.00 0.10 0.00 92 1019.2
20260902220309 18 190 0.0 4.8 0.00 0.10 0.00 92 1019.2
20260902214810 18 190 1.6 6.4 0.00 0.10 0.00 90 1019.4